Year,Month,Day,Hour,Minute,Value (Times are PST for temperature in C)
2024,01,30,00,00,15.70
2024,01,30,00,01,15.60
2024,01,30,00,02,15.70
2024,01,30,00,03,15.70
2024,01,30,00,04,15.60
2024,01,30,00,05,15.60
2024,01,30,00,06,15.60
2024,01,30,00,07,15.70
2024,01,30,00,08,15.70
2024,01,30,00,09,15.70
2024,01,30,00,10,15.70
2024,01,30,00,11,15.70
2024,01,30,00,12,15.70
2024,01,30,00,13,15.80
2024,01,30,00,14,15.80
2024,01,30,00,15,15.70
2024,01,30,00,16,15.70
2024,01,30,00,17,15.70
2024,01,30,00,18,15.70
2024,01,30,00,19,15.70
2024,01,30,00,20,15.70
2024,01,30,00,21,15.70
2024,01,30,00,22,15.70
2024,01,30,00,23,15.70
2024,01,30,00,24,15.70
2024,01,30,00,25,15.70
2024,01,30,00,26,15.70
2024,01,30,00,27,15.70
2024,01,30,00,28,15.70
2024,01,30,00,29,15.70
2024,01,30,00,30,15.70
2024,01,30,00,31,15.70
2024,01,30,00,32,15.70
2024,01,30,00,33,15.70
2024,01,30,00,34,15.70
2024,01,30,00,35,15.70
2024,01,30,00,36,15.70
2024,01,30,00,37,15.70
2024,01,30,00,38,15.60
2024,01,30,00,39,15.70
2024,01,30,00,40,15.70
2024,01,30,00,41,15.60
2024,01,30,00,42,15.70
2024,01,30,00,43,15.70
2024,01,30,00,44,15.60
2024,01,30,00,45,15.60
2024,01,30,00,46,15.60
2024,01,30,00,47,15.60
2024,01,30,00,48,15.60
2024,01,30,00,49,15.60
2024,01,30,00,50,15.50
2024,01,30,00,51,15.60
2024,01,30,00,52,15.50
2024,01,30,00,53,15.60
2024,01,30,00,54,15.60
2024,01,30,00,55,15.60
2024,01,30,00,56,15.60
2024,01,30,00,57,15.60
2024,01,30,00,58,15.70
2024,01,30,00,59,15.70
2024,01,30,01,00,15.70
2024,01,30,01,01,15.70
2024,01,30,01,02,15.70
2024,01,30,01,03,15.70
2024,01,30,01,04,15.80
2024,01,30,01,05,15.80
2024,01,30,01,06,15.80
2024,01,30,01,07,15.80
2024,01,30,01,08,15.80
2024,01,30,01,09,15.80
2024,01,30,01,10,15.80
2024,01,30,01,11,15.80
2024,01,30,01,12,15.80
2024,01,30,01,13,15.90
2024,01,30,01,14,15.80
2024,01,30,01,15,15.90
2024,01,30,01,16,15.90
2024,01,30,01,17,15.90
2024,01,30,01,18,15.80
2024,01,30,01,19,15.90
2024,01,30,01,20,15.90
2024,01,30,01,21,15.90
2024,01,30,01,22,15.90
2024,01,30,01,23,15.80
2024,01,30,01,24,15.90
2024,01,30,01,25,15.80
2024,01,30,01,26,15.80
2024,01,30,01,27,15.80
2024,01,30,01,28,15.80
2024,01,30,01,29,15.70
2024,01,30,01,30,15.80
2024,01,30,01,31,15.80
2024,01,30,01,32,15.70
2024,01,30,01,33,15.80
2024,01,30,01,34,15.80
2024,01,30,01,35,15.80
2024,01,30,01,36,15.80
2024,01,30,01,37,15.70
2024,01,30,01,38,15.70
2024,01,30,01,39,15.60
2024,01,30,01,40,15.70
2024,01,30,01,41,15.60
2024,01,30,01,42,15.60
2024,01,30,01,43,15.70
2024,01,30,01,44,15.60
2024,01,30,01,45,15.60
2024,01,30,01,46,15.60
2024,01,30,01,47,15.60
2024,01,30,01,48,15.60
2024,01,30,01,49,15.60
2024,01,30,01,50,15.60
2024,01,30,01,51,15.60
2024,01,30,01,52,15.60
2024,01,30,01,53,15.60
2024,01,30,01,54,15.60
2024,01,30,01,55,15.60
2024,01,30,01,56,15.60
2024,01,30,01,57,15.60
2024,01,30,01,58,15.60
2024,01,30,01,59,15.50
2024,01,30,02,00,15.60
2024,01,30,02,01,15.60
2024,01,30,02,02,15.50
2024,01,30,02,03,15.50
2024,01,30,02,04,15.50
2024,01,30,02,05,15.50
2024,01,30,02,06,15.50
2024,01,30,02,07,15.40
2024,01,30,02,08,15.40
2024,01,30,02,09,15.30
2024,01,30,02,10,15.30
2024,01,30,02,11,15.30
2024,01,30,02,12,15.30
2024,01,30,02,13,15.40
2024,01,30,02,14,15.30
2024,01,30,02,15,15.30
2024,01,30,02,16,15.30
2024,01,30,02,17,15.30
2024,01,30,02,18,15.20
2024,01,30,02,19,15.20
2024,01,30,02,20,15.30
2024,01,30,02,21,15.20
2024,01,30,02,22,15.20
2024,01,30,02,23,15.10
2024,01,30,02,24,15.20
2024,01,30,02,25,15.10
2024,01,30,02,26,15.00
2024,01,30,02,27,15.00
2024,01,30,02,28,15.00
2024,01,30,02,29,15.00
2024,01,30,02,30,15.00
2024,01,30,02,31,15.00
2024,01,30,02,32,14.90
2024,01,30,02,33,15.00
2024,01,30,02,34,14.90
2024,01,30,02,35,14.90
2024,01,30,02,36,14.90
2024,01,30,02,37,14.80
2024,01,30,02,38,14.80
2024,01,30,02,39,14.80
2024,01,30,02,40,14.70
2024,01,30,02,41,14.70
2024,01,30,02,42,14.60
2024,01,30,02,43,14.60
2024,01,30,02,44,14.40
2024,01,30,02,45,14.50
2024,01,30,02,46,14.40
2024,01,30,02,47,14.40
2024,01,30,02,48,14.40
2024,01,30,02,49,14.40
2024,01,30,02,50,14.30
2024,01,30,02,51,14.30
2024,01,30,02,52,14.30
2024,01,30,02,53,14.30
2024,01,30,02,54,14.30
2024,01,30,02,55,14.20
2024,01,30,02,56,14.20
2024,01,30,02,57,14.20
2024,01,30,02,58,14.20
2024,01,30,02,59,14.20
2024,01,30,03,00,14.20
2024,01,30,03,01,14.20
2024,01,30,03,02,14.10
2024,01,30,03,03,14.10
2024,01,30,03,04,14.10
2024,01,30,03,05,14.10
2024,01,30,03,06,14.00
2024,01,30,03,07,14.00
2024,01,30,03,08,14.00
2024,01,30,03,09,14.00
2024,01,30,03,10,14.00
2024,01,30,03,11,14.00
2024,01,30,03,12,14.00
2024,01,30,03,13,14.00
2024,01,30,03,14,14.00
2024,01,30,03,15,14.00
2024,01,30,03,16,14.00
2024,01,30,03,17,14.00
2024,01,30,03,18,13.90
2024,01,30,03,19,13.90
2024,01,30,03,20,13.90
2024,01,30,03,21,14.00
2024,01,30,03,22,14.00
2024,01,30,03,23,13.90
2024,01,30,03,24,13.90
2024,01,30,03,25,14.00
2024,01,30,03,26,14.10
2024,01,30,03,27,14.10
2024,01,30,03,28,14.10
2024,01,30,03,29,14.10
2024,01,30,03,30,14.20
2024,01,30,03,31,14.10
2024,01,30,03,32,14.00
2024,01,30,03,33,14.10
2024,01,30,03,34,14.10
2024,01,30,03,35,14.20
2024,01,30,03,36,14.20
2024,01,30,03,37,14.20
2024,01,30,03,38,14.20
2024,01,30,03,39,14.20
2024,01,30,03,40,14.20
2024,01,30,03,41,14.20
2024,01,30,03,42,14.20
2024,01,30,03,43,14.20
2024,01,30,03,44,14.20
2024,01,30,03,45,14.10
2024,01,30,03,46,14.20
2024,01,30,03,47,14.10
2024,01,30,03,48,14.00
2024,01,30,03,49,14.00
2024,01,30,03,50,14.00
2024,01,30,03,51,13.90
2024,01,30,03,52,13.90
2024,01,30,03,53,13.90
2024,01,30,03,54,13.90
2024,01,30,03,55,13.90
2024,01,30,03,56,13.90
2024,01,30,03,57,13.90
2024,01,30,03,58,13.90
2024,01,30,03,59,13.90
2024,01,30,04,00,13.90
2024,01,30,04,01,13.80
2024,01,30,04,02,13.80
2024,01,30,04,03,13.80
2024,01,30,04,04,13.70
2024,01,30,04,05,13.80
2024,01,30,04,06,13.70
2024,01,30,04,07,13.70
2024,01,30,04,08,13.70
2024,01,30,04,09,13.70
2024,01,30,04,10,13.70
2024,01,30,04,11,13.80
2024,01,30,04,12,13.80
2024,01,30,04,13,13.80
2024,01,30,04,14,13.70
2024,01,30,04,15,13.70
2024,01,30,04,16,13.70
2024,01,30,04,17,13.60
2024,01,30,04,18,13.70
2024,01,30,04,19,13.70
2024,01,30,04,20,13.70
2024,01,30,04,21,13.60
2024,01,30,04,22,13.60
2024,01,30,04,23,13.60
2024,01,30,04,24,13.60
2024,01,30,04,25,13.60
2024,01,30,04,26,13.60
2024,01,30,04,27,13.60
2024,01,30,04,28,13.60
2024,01,30,04,29,13.60
2024,01,30,04,30,13.60
2024,01,30,04,31,13.50
2024,01,30,04,32,13.60
2024,01,30,04,33,13.60
2024,01,30,04,34,13.60
2024,01,30,04,35,13.50
2024,01,30,04,36,13.50
2024,01,30,04,37,13.50
2024,01,30,04,38,13.50
2024,01,30,04,39,13.50
2024,01,30,04,40,13.50
2024,01,30,04,41,13.50
2024,01,30,04,42,13.50
2024,01,30,04,43,13.50
2024,01,30,04,44,13.40
2024,01,30,04,45,13.40
2024,01,30,04,46,13.40
2024,01,30,04,47,13.50
2024,01,30,04,48,13.50
2024,01,30,04,49,13.40
2024,01,30,04,50,13.50
2024,01,30,04,51,13.50
2024,01,30,04,52,13.40
2024,01,30,04,53,13.40
2024,01,30,04,54,13.40
2024,01,30,04,55,13.40
2024,01,30,04,56,13.50
2024,01,30,04,57,13.50
2024,01,30,04,58,13.50
2024,01,30,04,59,13.40
2024,01,30,05,00,13.50
2024,01,30,05,01,13.50
2024,01,30,05,02,13.50
2024,01,30,05,03,13.40
2024,01,30,05,04,13.30
2024,01,30,05,05,13.30
2024,01,30,05,06,13.30
2024,01,30,05,07,13.40
2024,01,30,05,08,13.40
2024,01,30,05,09,13.30
2024,01,30,05,10,13.40
2024,01,30,05,11,13.30
2024,01,30,05,12,13.30
2024,01,30,05,13,13.30
2024,01,30,05,14,13.30
2024,01,30,05,15,13.30
2024,01,30,05,16,13.30
2024,01,30,05,17,13.30
2024,01,30,05,18,13.30
2024,01,30,05,19,13.30
2024,01,30,05,20,13.30
2024,01,30,05,21,13.20
2024,01,30,05,22,13.30
2024,01,30,05,23,13.20
2024,01,30,05,24,13.20
2024,01,30,05,25,13.20
2024,01,30,05,26,13.20
2024,01,30,05,27,13.20
2024,01,30,05,28,13.20
2024,01,30,05,29,13.10
2024,01,30,05,30,13.10
2024,01,30,05,31,13.10
2024,01,30,05,32,13.10
2024,01,30,05,33,13.10
2024,01,30,05,34,13.10
2024,01,30,05,35,13.10
2024,01,30,05,36,13.10
2024,01,30,05,37,13.00
2024,01,30,05,38,13.10
2024,01,30,05,39,13.10
2024,01,30,05,40,13.00
2024,01,30,05,41,13.00
2024,01,30,05,42,13.00
2024,01,30,05,43,13.10
2024,01,30,05,44,13.00
2024,01,30,05,45,13.00
2024,01,30,05,46,13.00
2024,01,30,05,47,13.00
2024,01,30,05,48,13.00
2024,01,30,05,49,13.00
2024,01,30,05,50,13.00
2024,01,30,05,51,13.00
2024,01,30,05,52,13.00
2024,01,30,05,53,13.00
2024,01,30,05,54,13.00
2024,01,30,05,55,13.00
2024,01,30,05,56,13.00
2024,01,30,05,57,12.90
2024,01,30,05,58,12.90
2024,01,30,05,59,12.90
2024,01,30,06,00,12.90
2024,01,30,06,01,12.90
2024,01,30,06,02,12.90
2024,01,30,06,03,12.90
2024,01,30,06,04,12.90
2024,01,30,06,05,12.80
2024,01,30,06,06,12.80
2024,01,30,06,07,12.90
2024,01,30,06,08,12.90
2024,01,30,06,09,12.90
2024,01,30,06,10,13.00
2024,01,30,06,11,13.00
2024,01,30,06,12,12.90
2024,01,30,06,13,12.90
2024,01,30,06,14,12.90
2024,01,30,06,15,12.90
2024,01,30,06,16,12.90
2024,01,30,06,17,12.90
2024,01,30,06,18,12.90
2024,01,30,06,19,13.00
2024,01,30,06,20,12.90
2024,01,30,06,21,13.00
2024,01,30,06,22,12.90
2024,01,30,06,23,13.00
2024,01,30,06,24,13.00
2024,01,30,06,25,13.00
2024,01,30,06,26,13.00
2024,01,30,06,27,13.00
2024,01,30,06,28,13.00
2024,01,30,06,29,13.00
2024,01,30,06,30,13.00
2024,01,30,06,31,13.00
2024,01,30,06,32,13.00
2024,01,30,06,33,13.00
2024,01,30,06,34,13.00
2024,01,30,06,35,13.00
2024,01,30,06,36,13.00
2024,01,30,06,37,13.00
2024,01,30,06,38,12.90
2024,01,30,06,39,12.90
2024,01,30,06,40,12.90
2024,01,30,06,41,12.90
2024,01,30,06,42,12.90
2024,01,30,06,43,13.00
2024,01,30,06,44,13.00
2024,01,30,06,45,12.90
2024,01,30,06,46,12.90
2024,01,30,06,47,12.90
2024,01,30,06,48,12.90
2024,01,30,06,49,12.90
2024,01,30,06,50,13.00
2024,01,30,06,51,13.00
2024,01,30,06,52,13.00
2024,01,30,06,53,13.00
2024,01,30,06,54,13.10
2024,01,30,06,55,13.00
2024,01,30,06,56,13.00
2024,01,30,06,57,13.00
2024,01,30,06,58,13.00
2024,01,30,06,59,13.00
2024,01,30,07,00,12.90
2024,01,30,07,01,12.80
2024,01,30,07,02,12.90
2024,01,30,07,03,13.00
2024,01,30,07,04,13.00
2024,01,30,07,05,12.80
2024,01,30,07,06,12.90
2024,01,30,07,07,12.90
2024,01,30,07,08,12.80
2024,01,30,07,09,12.90
2024,01,30,07,10,12.80
2024,01,30,07,11,12.80
2024,01,30,07,12,12.80
2024,01,30,07,13,12.90
2024,01,30,07,14,12.90
2024,01,30,07,15,12.80
2024,01,30,07,16,12.80
2024,01,30,07,17,12.80
2024,01,30,07,18,12.80
2024,01,30,07,19,12.80
2024,01,30,07,20,12.80
2024,01,30,07,21,12.80
2024,01,30,07,22,12.80
2024,01,30,07,23,12.80
2024,01,30,07,24,13.00
2024,01,30,07,25,13.00
2024,01,30,07,26,13.00
2024,01,30,07,27,13.00
2024,01,30,07,28,13.00
2024,01,30,07,29,13.00
2024,01,30,07,30,13.00
2024,01,30,07,31,12.90
2024,01,30,07,32,12.90
2024,01,30,07,33,12.90
2024,01,30,07,34,12.90
2024,01,30,07,35,13.00
2024,01,30,07,36,13.00
2024,01,30,07,37,13.00
2024,01,30,07,38,13.00
2024,01,30,07,39,13.00
2024,01,30,07,40,13.00
2024,01,30,07,41,13.00
2024,01,30,07,42,13.00
2024,01,30,07,43,13.00
2024,01,30,07,44,13.00
2024,01,30,07,45,13.00
2024,01,30,07,46,12.90
2024,01,30,07,47,12.80
2024,01,30,07,48,12.90
2024,01,30,07,49,12.90
2024,01,30,07,50,12.90
2024,01,30,07,51,12.90
2024,01,30,07,52,12.80
2024,01,30,07,53,12.80
2024,01,30,07,54,12.90
2024,01,30,07,55,12.90
2024,01,30,07,56,12.80
2024,01,30,07,57,12.80
2024,01,30,07,58,12.80
2024,01,30,07,59,12.80
2024,01,30,08,00,12.80
2024,01,30,08,01,12.80
2024,01,30,08,02,12.80
2024,01,30,08,03,12.80
2024,01,30,08,04,12.80
2024,01,30,08,05,12.70
2024,01,30,08,06,12.70
2024,01,30,08,07,12.70
2024,01,30,08,08,12.70
2024,01,30,08,09,12.60
2024,01,30,08,10,12.60
2024,01,30,08,11,12.60
2024,01,30,08,12,12.50
2024,01,30,08,13,12.50
2024,01,30,08,14,12.50
2024,01,30,08,15,12.50
2024,01,30,08,16,12.50
2024,01,30,08,17,12.60
2024,01,30,08,18,12.60
2024,01,30,08,19,12.50
2024,01,30,08,20,12.60
2024,01,30,08,21,12.60
2024,01,30,08,22,12.70
2024,01,30,08,23,12.70
2024,01,30,08,24,12.80
2024,01,30,08,25,12.80
2024,01,30,08,26,12.90
2024,01,30,08,27,12.80
2024,01,30,08,28,12.80
2024,01,30,08,29,12.80
2024,01,30,08,30,12.80
2024,01,30,08,31,12.90
2024,01,30,08,32,12.80
2024,01,30,08,33,12.90
2024,01,30,08,34,12.90
2024,01,30,08,35,12.90
2024,01,30,08,36,12.90
2024,01,30,08,37,13.00
2024,01,30,08,38,13.00
2024,01,30,08,39,13.00
2024,01,30,08,40,12.90
2024,01,30,08,41,12.90
2024,01,30,08,42,12.90
2024,01,30,08,43,12.90
2024,01,30,08,44,12.90
2024,01,30,08,45,12.90
2024,01,30,08,46,12.80
2024,01,30,08,47,12.90
2024,01,30,08,48,12.90
2024,01,30,08,49,12.80
2024,01,30,08,50,12.90
2024,01,30,08,51,12.90
2024,01,30,08,52,12.90
2024,01,30,08,53,12.90
2024,01,30,08,54,12.90
2024,01,30,08,55,12.90
2024,01,30,08,56,13.00
2024,01,30,08,57,13.00
2024,01,30,08,58,13.00
2024,01,30,08,59,12.90
2024,01,30,09,00,12.90
2024,01,30,09,01,12.90
2024,01,30,09,02,12.90
2024,01,30,09,03,12.90
2024,01,30,09,04,12.90
2024,01,30,09,05,12.80
2024,01,30,09,06,12.80
2024,01,30,09,07,12.80
2024,01,30,09,08,12.80
2024,01,30,09,09,12.80
2024,01,30,09,10,12.80
2024,01,30,09,11,12.70
2024,01,30,09,12,12.80
2024,01,30,09,13,12.70
2024,01,30,09,14,12.70
2024,01,30,09,15,12.70
2024,01,30,09,16,12.70
2024,01,30,09,17,12.80
2024,01,30,09,18,12.80
2024,01,30,09,19,12.80
2024,01,30,09,20,12.80
2024,01,30,09,21,12.80
2024,01,30,09,22,12.80
2024,01,30,09,23,12.80
2024,01,30,09,24,12.70
2024,01,30,09,25,12.70
2024,01,30,09,26,12.70
2024,01,30,09,27,12.70
2024,01,30,09,28,12.70
2024,01,30,09,29,12.70
2024,01,30,09,30,12.70
2024,01,30,09,31,12.70
2024,01,30,09,32,12.70
2024,01,30,09,33,12.80
2024,01,30,09,34,12.80
2024,01,30,09,35,12.80
2024,01,30,09,36,12.90
2024,01,30,09,37,12.80
2024,01,30,09,38,12.90
2024,01,30,09,39,12.90
2024,01,30,09,40,13.00
2024,01,30,09,41,13.00
2024,01,30,09,42,13.00
2024,01,30,09,43,13.00
2024,01,30,09,44,13.00
2024,01,30,09,45,13.00
2024,01,30,09,46,13.00
2024,01,30,09,47,13.00
2024,01,30,09,48,13.10
2024,01,30,09,49,13.10
2024,01,30,09,50,13.10
2024,01,30,09,51,13.10
2024,01,30,09,52,13.10
2024,01,30,09,53,13.10
2024,01,30,09,54,13.10
2024,01,30,09,55,13.20
2024,01,30,09,56,13.20
2024,01,30,09,57,13.20
2024,01,30,09,58,13.20
2024,01,30,09,59,13.20
2024,01,30,10,00,13.20
2024,01,30,10,01,13.20
2024,01,30,10,02,13.20
2024,01,30,10,03,13.20
2024,01,30,10,04,13.20
2024,01,30,10,05,13.20
2024,01,30,10,06,13.20
2024,01,30,10,07,13.20
2024,01,30,10,08,13.30
2024,01,30,10,09,13.40
2024,01,30,10,10,13.30
2024,01,30,10,11,13.30
2024,01,30,10,12,13.40
2024,01,30,10,13,13.40
2024,01,30,10,14,13.30
2024,01,30,10,15,13.40
2024,01,30,10,16,13.40
2024,01,30,10,17,13.40
2024,01,30,10,18,13.40
2024,01,30,10,19,13.50
2024,01,30,10,20,13.50
2024,01,30,10,21,13.50
2024,01,30,10,22,13.50
2024,01,30,10,23,13.50
2024,01,30,10,24,13.50
2024,01,30,10,25,13.50
2024,01,30,10,26,13.50
2024,01,30,10,27,13.50
2024,01,30,10,28,13.60
2024,01,30,10,29,13.60
2024,01,30,10,30,13.60
2024,01,30,10,31,13.60
2024,01,30,10,32,13.60
2024,01,30,10,33,13.60
2024,01,30,10,34,13.60
2024,01,30,10,35,13.60
2024,01,30,10,36,13.60
2024,01,30,10,37,13.60
2024,01,30,10,38,13.60
2024,01,30,10,39,13.60
2024,01,30,10,40,13.60
2024,01,30,10,41,13.60
2024,01,30,10,42,13.70
2024,01,30,10,43,13.70
2024,01,30,10,44,13.70
2024,01,30,10,45,13.70
2024,01,30,10,46,13.70
2024,01,30,10,47,13.70
2024,01,30,10,48,13.70
2024,01,30,10,49,13.70
2024,01,30,10,50,13.70
2024,01,30,10,51,13.80
2024,01,30,10,52,13.70
2024,01,30,10,53,13.70
2024,01,30,10,54,13.80
2024,01,30,10,55,13.70
2024,01,30,10,56,13.80
2024,01,30,10,57,13.90
2024,01,30,10,58,13.90
2024,01,30,10,59,13.90
2024,01,30,11,00,13.90
2024,01,30,11,01,13.80
2024,01,30,11,02,13.80
2024,01,30,11,03,13.80
2024,01,30,11,04,13.90
2024,01,30,11,05,13.80
2024,01,30,11,06,13.80
2024,01,30,11,07,13.80
2024,01,30,11,08,13.80
2024,01,30,11,09,13.80
2024,01,30,11,10,13.80
2024,01,30,11,11,13.70
2024,01,30,11,12,13.70
2024,01,30,11,13,13.70
2024,01,30,11,14,13.70
2024,01,30,11,15,13.70
2024,01,30,11,16,13.70
2024,01,30,11,17,13.80
2024,01,30,11,18,13.80
2024,01,30,11,19,13.80
2024,01,30,11,20,13.70
2024,01,30,11,21,13.70
2024,01,30,11,22,13.70
2024,01,30,11,23,13.70
2024,01,30,11,24,13.70
2024,01,30,11,25,13.70
2024,01,30,11,26,13.70
2024,01,30,11,27,13.70
2024,01,30,11,28,13.70
2024,01,30,11,29,13.70
2024,01,30,11,30,13.70
2024,01,30,11,31,13.70
2024,01,30,11,32,13.70
2024,01,30,11,33,13.80
2024,01,30,11,34,13.70
2024,01,30,11,35,13.70
2024,01,30,11,36,13.70
2024,01,30,11,37,13.70
2024,01,30,11,38,13.70
2024,01,30,11,39,13.70
2024,01,30,11,40,13.80
2024,01,30,11,41,13.70
2024,01,30,11,42,13.70
2024,01,30,11,43,13.70
2024,01,30,11,44,13.70
2024,01,30,11,45,13.70
2024,01,30,11,46,13.70
2024,01,30,11,47,13.70
2024,01,30,11,48,13.70
2024,01,30,11,49,13.70
2024,01,30,11,50,13.70
2024,01,30,11,51,13.60
2024,01,30,11,52,13.60
2024,01,30,11,53,13.60
2024,01,30,11,54,13.70
2024,01,30,11,55,13.60
2024,01,30,11,56,13.60
2024,01,30,11,57,13.60
2024,01,30,11,58,13.60
2024,01,30,11,59,13.60
2024,01,30,12,00,13.60
2024,01,30,12,01,13.60
2024,01,30,12,02,13.60
2024,01,30,12,03,13.60
2024,01,30,12,04,13.70
2024,01,30,12,05,13.70
2024,01,30,12,06,13.60
2024,01,30,12,07,13.70
2024,01,30,12,08,13.80
2024,01,30,12,09,13.70
2024,01,30,12,10,13.70
2024,01,30,12,11,13.70
2024,01,30,12,12,13.70
2024,01,30,12,13,13.70
2024,01,30,12,14,13.80
2024,01,30,12,15,13.80
2024,01,30,12,16,13.80
2024,01,30,12,17,13.80
2024,01,30,12,18,13.80
2024,01,30,12,19,13.80
2024,01,30,12,20,13.70
2024,01,30,12,21,13.80
2024,01,30,12,22,13.80
2024,01,30,12,23,13.70
2024,01,30,12,24,13.70
2024,01,30,12,25,13.70
2024,01,30,12,26,13.70
2024,01,30,12,27,13.70
2024,01,30,12,28,13.70
2024,01,30,12,29,13.70
2024,01,30,12,30,13.70
2024,01,30,12,31,13.70
2024,01,30,12,32,13.70
2024,01,30,12,33,13.70
2024,01,30,12,34,13.70
2024,01,30,12,35,13.70
2024,01,30,12,36,13.70
2024,01,30,12,37,13.70
2024,01,30,12,38,13.70
2024,01,30,12,39,13.70
2024,01,30,12,40,13.70
2024,01,30,12,41,13.60
2024,01,30,12,42,13.60
2024,01,30,12,43,13.70
2024,01,30,12,44,13.70
2024,01,30,12,45,13.70
2024,01,30,12,46,13.70
2024,01,30,12,47,13.70
2024,01,30,12,48,13.70
2024,01,30,12,49,13.70
2024,01,30,12,50,13.70
2024,01,30,12,51,13.70
2024,01,30,12,52,13.70
2024,01,30,12,53,13.70
2024,01,30,12,54,13.70
2024,01,30,12,55,13.70
2024,01,30,12,56,13.70
2024,01,30,12,57,13.70
2024,01,30,12,58,13.60
2024,01,30,12,59,13.60
2024,01,30,13,00,13.60
2024,01,30,13,01,13.60
2024,01,30,13,02,13.60
2024,01,30,13,03,13.70
2024,01,30,13,04,13.70
2024,01,30,13,05,13.60
2024,01,30,13,06,13.60
2024,01,30,13,07,13.60
2024,01,30,13,08,13.60
2024,01,30,13,09,13.60
2024,01,30,13,10,13.60
2024,01,30,13,11,13.70
2024,01,30,13,12,13.60
2024,01,30,13,13,13.60
2024,01,30,13,14,13.60
2024,01,30,13,15,13.60
2024,01,30,13,16,13.60
2024,01,30,13,17,13.60
2024,01,30,13,18,13.60
2024,01,30,13,19,13.60
2024,01,30,13,20,13.60
2024,01,30,13,21,13.60
2024,01,30,13,22,13.60
2024,01,30,13,23,13.50
2024,01,30,13,24,13.60
2024,01,30,13,25,13.60
2024,01,30,13,26,13.60
2024,01,30,13,27,13.60
2024,01,30,13,28,13.60
2024,01,30,13,29,13.60
2024,01,30,13,30,13.60
2024,01,30,13,31,13.60
2024,01,30,13,32,13.70
2024,01,30,13,33,13.60
2024,01,30,13,34,13.70
2024,01,30,13,35,13.60
2024,01,30,13,36,13.70
2024,01,30,13,37,13.70
2024,01,30,13,38,13.60
2024,01,30,13,39,13.70
2024,01,30,13,40,13.70
2024,01,30,13,41,13.70
2024,01,30,13,42,13.70
2024,01,30,13,43,13.70
2024,01,30,13,44,13.70
2024,01,30,13,45,13.70
2024,01,30,13,46,13.70
2024,01,30,13,47,13.70
2024,01,30,13,48,13.70
2024,01,30,13,49,13.80
2024,01,30,13,50,13.70
2024,01,30,13,51,13.70
2024,01,30,13,52,13.70
2024,01,30,13,53,13.80
2024,01,30,13,54,13.70
2024,01,30,13,55,13.70
2024,01,30,13,56,13.70
2024,01,30,13,57,13.70
2024,01,30,13,58,13.70
2024,01,30,13,59,13.70
2024,01,30,14,00,13.70
2024,01,30,14,01,13.70
2024,01,30,14,02,13.70
2024,01,30,14,03,13.70
2024,01,30,14,04,13.70
2024,01,30,14,05,13.70
2024,01,30,14,06,13.70
2024,01,30,14,07,13.70
2024,01,30,14,08,13.70
2024,01,30,14,09,13.70
2024,01,30,14,10,13.70
2024,01,30,14,11,13.70
2024,01,30,14,12,13.70
2024,01,30,14,13,13.70
2024,01,30,14,14,13.70
2024,01,30,14,15,13.90
2024,01,30,14,16,13.90
2024,01,30,14,17,13.80
2024,01,30,14,18,13.80
2024,01,30,14,19,13.90
2024,01,30,14,20,13.90
2024,01,30,14,21,13.90
2024,01,30,14,22,13.90
2024,01,30,14,23,13.90
2024,01,30,14,24,13.90
2024,01,30,14,25,13.90
2024,01,30,14,26,13.90
2024,01,30,14,27,13.80
2024,01,30,14,28,14.00
2024,01,30,14,29,14.00
2024,01,30,14,30,14.00
2024,01,30,14,31,14.10
2024,01,30,14,32,14.10
2024,01,30,14,33,14.10
2024,01,30,14,34,14.20
2024,01,30,14,35,14.30
2024,01,30,14,36,14.50
2024,01,30,14,37,14.50
2024,01,30,14,38,14.40
2024,01,30,14,39,14.50
2024,01,30,14,40,14.60
2024,01,30,14,41,14.50
2024,01,30,14,42,14.60
2024,01,30,14,43,14.70
2024,01,30,14,44,14.60
2024,01,30,14,45,14.70
2024,01,30,14,46,14.70
2024,01,30,14,47,14.70
2024,01,30,14,48,14.70
2024,01,30,14,49,14.70
2024,01,30,14,50,14.80
2024,01,30,14,51,14.80
2024,01,30,14,52,14.80
2024,01,30,14,53,14.80
2024,01,30,14,54,14.80
2024,01,30,14,55,14.80
2024,01,30,14,56,14.80
2024,01,30,14,57,14.80
2024,01,30,14,58,14.80
2024,01,30,14,59,14.80
2024,01,30,15,00,14.80
2024,01,30,15,01,14.80
2024,01,30,15,02,14.80
2024,01,30,15,03,14.80
2024,01,30,15,04,14.80
2024,01,30,15,05,14.80
2024,01,30,15,06,14.80
2024,01,30,15,07,14.80
2024,01,30,15,08,14.80
2024,01,30,15,09,14.70
2024,01,30,15,10,14.70
2024,01,30,15,11,14.70
2024,01,30,15,12,14.70
2024,01,30,15,13,14.70
2024,01,30,15,14,14.70
2024,01,30,15,15,14.80
2024,01,30,15,16,14.80
2024,01,30,15,17,14.70
2024,01,30,15,18,14.70
2024,01,30,15,19,14.70
2024,01,30,15,20,14.70
2024,01,30,15,21,14.70
2024,01,30,15,22,14.70
2024,01,30,15,23,14.70
2024,01,30,15,24,14.80
2024,01,30,15,25,14.80
2024,01,30,15,26,14.80
2024,01,30,15,27,14.90
2024,01,30,15,28,14.90
2024,01,30,15,29,14.90
2024,01,30,15,30,14.80
2024,01,30,15,31,14.80
2024,01,30,15,32,14.80
2024,01,30,15,33,14.80
2024,01,30,15,34,14.80
2024,01,30,15,35,14.70
2024,01,30,15,36,14.70
2024,01,30,15,37,14.60
2024,01,30,15,38,14.70
2024,01,30,15,39,14.60
2024,01,30,15,40,14.50
2024,01,30,15,41,14.50
2024,01,30,15,42,14.50
2024,01,30,15,43,14.40
2024,01,30,15,44,14.40
2024,01,30,15,45,14.40
2024,01,30,15,46,14.30
2024,01,30,15,47,14.20
2024,01,30,15,48,14.20
2024,01,30,15,49,14.20
2024,01,30,15,50,14.10
2024,01,30,15,51,14.10
2024,01,30,15,52,14.10
2024,01,30,15,53,14.10
2024,01,30,15,54,14.10
2024,01,30,15,55,14.00
2024,01,30,15,56,13.90
2024,01,30,15,57,13.90
2024,01,30,15,58,13.90
2024,01,30,15,59,13.80
2024,01,30,16,00,13.90
2024,01,30,16,01,13.80
2024,01,30,16,02,13.80
2024,01,30,16,03,13.70
2024,01,30,16,04,13.80
2024,01,30,16,05,13.80
2024,01,30,16,06,13.80
2024,01,30,16,07,13.80
2024,01,30,16,08,13.70
2024,01,30,16,09,13.70
2024,01,30,16,10,13.70
2024,01,30,16,11,13.70
2024,01,30,16,12,13.70
2024,01,30,16,13,13.70
2024,01,30,16,14,13.80
2024,01,30,16,15,13.70
2024,01,30,16,16,13.80
2024,01,30,16,17,13.70
2024,01,30,16,18,13.80
2024,01,30,16,19,13.80
2024,01,30,16,20,13.80
2024,01,30,16,21,13.80
2024,01,30,16,22,13.80
2024,01,30,16,23,13.70
2024,01,30,16,24,13.80
2024,01,30,16,25,13.80
2024,01,30,16,26,13.90
2024,01,30,16,27,13.90
2024,01,30,16,28,13.80
2024,01,30,16,29,13.80
2024,01,30,16,30,13.80
2024,01,30,16,31,13.80
2024,01,30,16,32,13.90
2024,01,30,16,33,13.80
2024,01,30,16,34,13.90
2024,01,30,16,35,13.90
2024,01,30,16,36,13.80
2024,01,30,16,37,13.80
2024,01,30,16,38,13.80
2024,01,30,16,39,13.70
2024,01,30,16,40,13.70
2024,01,30,16,41,13.70
2024,01,30,16,42,13.70
2024,01,30,16,43,13.70
2024,01,30,16,44,13.70
2024,01,30,16,45,13.80
2024,01,30,16,46,13.70
2024,01,30,16,47,13.70
2024,01,30,16,48,13.80
2024,01,30,16,49,13.70
2024,01,30,16,50,13.70
2024,01,30,16,51,13.70
2024,01,30,16,52,13.70
2024,01,30,16,53,13.60
2024,01,30,16,54,13.70
2024,01,30,16,55,13.70
2024,01,30,16,56,13.70
2024,01,30,16,57,13.70
2024,01,30,16,58,13.70
2024,01,30,16,59,13.60
2024,01,30,17,00,13.70
2024,01,30,17,01,13.70
2024,01,30,17,02,13.70
2024,01,30,17,03,13.80
2024,01,30,17,04,13.80
2024,01,30,17,05,13.70
2024,01,30,17,06,13.80
2024,01,30,17,07,13.90
2024,01,30,17,08,13.80
2024,01,30,17,09,13.70
2024,01,30,17,10,13.80
2024,01,30,17,11,13.80
2024,01,30,17,12,13.80
2024,01,30,17,13,13.80
2024,01,30,17,14,13.80
2024,01,30,17,15,13.80
2024,01,30,17,16,13.80
2024,01,30,17,17,13.80
2024,01,30,17,18,13.80
2024,01,30,17,19,13.80